EWG98VV EDDS-EGCC

Flight info

Callsign EWG98VV
Flight time N/A
Altitude 38000
Route VESID2H/07 VESID Y127 UBEGA Z818 RINEX Z12 XIDOD Q762 OLGAD DCT ADENU L608 DENUT L610 LAM UN57 WELIN T420 ELVOS
Aircraft A20N/M-SDE2E3FGHIRWXY/LB1

Departure

Time N/A
Airport Stuttgart Airport (EDDS)

Arrival

Time 2026-05-04 19:06
Airport Manchester Airport (EGCC)
Time Latitude Longitude Altitude Speed Heading
2026-05-04 17:30 49.44083 8.11669 37979 ft 394 kts 284°
2026-05-04 17:31 49.46582 8.04109 37983 ft 404 kts 303°
2026-05-04 17:31 49.53314 7.96044 37973 ft 418 kts 327°
2026-05-04 17:32 49.58029 7.90965 37978 ft 411 kts 314°
2026-05-04 17:33 49.66223 7.78698 37972 ft 410 kts 310°
2026-05-04 17:34 49.73942 7.65870 37998 ft 403 kts 299°
2026-05-04 17:35 49.81219 7.47355 37994 ft 404 kts 296°
2026-05-04 17:36 49.84063 7.39845 37989 ft 404 kts 296°
2026-05-04 17:36 49.86909 7.32348 37979 ft 404 kts 296°
2026-05-04 17:37 49.89758 7.24844 37995 ft 404 kts 296°
2026-05-04 17:37 49.92615 7.17296 37995 ft 405 kts 296°
2026-05-04 17:38 49.95440 7.09740 37987 ft 403 kts 293°
2026-05-04 17:38 49.98243 7.02160 38004 ft 405 kts 296°
2026-05-04 17:39 50.02538 6.90852 37978 ft 404 kts 295°
2026-05-04 17:39 50.05307 6.83235 37988 ft 403 kts 294°
2026-05-04 17:40 50.07556 6.76882 37980 ft 404 kts 294°
2026-05-04 17:40 50.10696 6.67983 37978 ft 403 kts 294°
2026-05-04 17:41 50.12947 6.61608 37979 ft 403 kts 294°
2026-05-04 17:41 50.15657 6.53923 37970 ft 404 kts 294°
2026-05-04 17:42 50.18576 6.46429 37969 ft 408 kts 304°
2026-05-04 17:42 50.22657 6.40131 37968 ft 415 kts 314°
2026-05-04 17:43 50.27086 6.34309 37968 ft 417 kts 316°
2026-05-04 17:43 50.31551 6.28603 37968 ft 416 kts 316°
2026-05-04 17:44 50.36021 6.22846 37971 ft 416 kts 316°
2026-05-04 17:44 50.40473 6.17054 37974 ft 416 kts 316°
2026-05-04 17:45 50.44924 6.11233 37977 ft 416 kts 316°
2026-05-04 17:45 50.49361 6.05411 37987 ft 416 kts 315°
2026-05-04 17:46 50.53802 5.99572 37977 ft 416 kts 316°
2026-05-04 17:46 50.58243 5.93719 37976 ft 416 kts 316°
2026-05-04 17:47 50.62571 5.87684 37976 ft 412 kts 308°
2026-05-04 17:47 50.65609 5.80238 37973 ft 400 kts 287°
2026-05-04 17:48 50.67366 5.72002 37973 ft 398 kts 282°
2026-05-04 17:48 50.68902 5.63619 37975 ft 398 kts 282°
2026-05-04 17:49 50.70531 5.55253 37967 ft 399 kts 283°
2026-05-04 17:49 50.72216 5.46884 37965 ft 400 kts 283°
2026-05-04 17:50 50.73902 5.38522 37971 ft 400 kts 283°
2026-05-04 17:50 50.75578 5.30150 37968 ft 400 kts 283°
2026-05-04 17:51 50.77246 5.21761 37967 ft 399 kts 283°
2026-05-04 17:51 50.78899 5.13405 37987 ft 399 kts 283°
2026-05-04 17:52 50.80551 5.05016 37981 ft 400 kts 283°
2026-05-04 17:52 50.82166 4.96638 37980 ft 401 kts 283°
2026-05-04 17:53 50.83769 4.88203 37974 ft 400 kts 283°
2026-05-04 17:53 50.85366 4.79766 37977 ft 400 kts 283°
2026-05-04 17:54 50.86961 4.71307 37971 ft 400 kts 283°
2026-05-04 17:54 50.88550 4.62851 37967 ft 402 kts 283°
2026-05-04 17:55 50.90297 4.54432 37965 ft 405 kts 291°
2026-05-04 17:55 50.93005 4.46543 37965 ft 408 kts 297°
2026-05-04 17:56 50.95949 4.38816 37965 ft 409 kts 298°
2026-05-04 17:56 50.98930 4.31123 37967 ft 409 kts 298°
2026-05-04 17:57 51.01896 4.23409 37970 ft 409 kts 297°
2026-05-04 17:57 51.04823 4.15731 37969 ft 409 kts 297°
2026-05-04 17:58 51.07763 4.07979 37972 ft 409 kts 297°
2026-05-04 17:58 51.10692 4.00232 37974 ft 409 kts 297°
2026-05-04 17:59 51.13624 3.92456 37974 ft 409 kts 297°
2026-05-04 18:00 51.17987 3.80842 37971 ft 409 kts 297°
2026-05-04 18:00 51.20901 3.73053 37984 ft 409 kts 297°
2026-05-04 18:01 51.23475 3.65022 37985 ft 404 kts 285°
2026-05-04 18:01 51.24914 3.56382 37988 ft 402 kts 279°
2026-05-04 18:02 51.26648 3.43274 37988 ft 401 kts 278°
2026-05-04 18:02 51.27758 3.34533 37991 ft 401 kts 278°
2026-05-04 18:03 51.28867 3.25814 37983 ft 403 kts 278°
2026-05-04 18:03 51.29984 3.17047 38002 ft 403 kts 278°
2026-05-04 18:04 51.31100 3.08266 37986 ft 403 kts 278°
2026-05-04 18:05 51.32761 2.95095 37990 ft 402 kts 278°
2026-05-04 18:05 51.33849 2.86385 38015 ft 402 kts 278°
2026-05-04 18:06 51.35484 2.73205 38003 ft 402 kts 278°
2026-05-04 18:06 51.36568 2.64422 37998 ft 402 kts 278°
2026-05-04 18:07 51.37647 2.55637 37998 ft 402 kts 278°
2026-05-04 18:07 51.38718 2.46849 38000 ft 402 kts 278°
2026-05-04 18:08 51.39780 2.38047 38008 ft 402 kts 277°
2026-05-04 18:08 51.40827 2.29235 38004 ft 403 kts 277°
2026-05-04 18:09 51.42950 2.11638 38000 ft 403 kts 277°
2026-05-04 18:10 51.44019 2.02821 38007 ft 403 kts 278°
2026-05-04 18:10 51.45099 1.93983 38005 ft 403 kts 278°
2026-05-04 18:11 51.46149 1.85139 38008 ft 404 kts 278°
2026-05-04 18:11 51.47170 1.76332 38008 ft 404 kts 278°
2026-05-04 18:12 51.48187 1.67473 38008 ft 404 kts 278°
2026-05-04 18:12 51.49202 1.58589 38007 ft 404 kts 278°
2026-05-04 18:13 51.50209 1.49712 38013 ft 404 kts 277°
2026-05-04 18:14 51.51708 1.36397 38011 ft 404 kts 277°
2026-05-04 18:14 51.52699 1.27510 38018 ft 404 kts 277°
2026-05-04 18:15 51.54660 1.09731 38021 ft 404 kts 277°
2026-05-04 18:16 51.55628 1.00842 38021 ft 404 kts 277°
2026-05-04 18:16 51.56580 0.92001 38025 ft 404 kts 277°
2026-05-04 18:17 51.57913 0.78635 38019 ft 404 kts 277°
2026-05-04 18:18 51.59401 0.65290 38019 ft 404 kts 277°
2026-05-04 18:18 51.60364 0.56382 38020 ft 404 kts 277°
2026-05-04 18:19 51.61763 0.43032 38019 ft 399 kts 277°
2026-05-04 18:19 51.62672 0.34222 38021 ft 401 kts 277°
2026-05-04 18:20 51.63573 0.25333 38021 ft 403 kts 277°
2026-05-04 18:20 51.65067 0.16636 38021 ft 406 kts 293°
2026-05-04 18:21 51.66475 0.12689 38019 ft 409 kts 304°
2026-05-04 18:21 51.68263 0.09176 38023 ft 410 kts 309°
2026-05-04 18:21 51.72187 0.02501 38022 ft 412 kts 313°
2026-05-04 18:22 51.76240 -0.04045 38042 ft 412 kts 313°
2026-05-04 18:22 51.80241 -0.10638 38043 ft 411 kts 312°
2026-05-04 18:23 51.84254 -0.17249 37783 ft 411 kts 313°
2026-05-04 18:23 51.86266 -0.20555 37532 ft 411 kts 313°
2026-05-04 18:23 51.88273 -0.23864 37265 ft 412 kts 312°
2026-05-04 18:24 51.90272 -0.27174 36999 ft 412 kts 313°
2026-05-04 18:24 51.92248 -0.30458 36744 ft 411 kts 312°
2026-05-04 18:24 51.94267 -0.33823 36430 ft 412 kts 312°
2026-05-04 18:24 51.96239 -0.37117 35954 ft 412 kts 312°
2026-05-04 18:25 51.98236 -0.40457 35485 ft 412 kts 312°
2026-05-04 18:25 52.00229 -0.43797 34952 ft 412 kts 312°
2026-05-04 18:25 52.02225 -0.47146 34406 ft 412 kts 311°
2026-05-04 18:25 52.04219 -0.50496 33853 ft 412 kts 311°
2026-05-04 18:26 52.06208 -0.53841 33217 ft 412 kts 312°
2026-05-04 18:26 52.08197 -0.57190 32599 ft 411 kts 311°
2026-05-04 18:26 52.10182 -0.60538 31989 ft 410 kts 311°
2026-05-04 18:26 52.12164 -0.63885 31403 ft 410 kts 311°
2026-05-04 18:27 52.14141 -0.67229 30825 ft 411 kts 311°
2026-05-04 18:27 52.15456 -0.69455 30449 ft 412 kts 311°
2026-05-04 18:27 52.17442 -0.72820 29837 ft 412 kts 311°
2026-05-04 18:27 52.19423 -0.76181 29187 ft 410 kts 311°
2026-05-04 18:28 52.21389 -0.79521 28540 ft 406 kts 311°
2026-05-04 18:28 52.24013 -0.83842 27709 ft 403 kts 316°
2026-05-04 18:28 52.25514 -0.85734 27300 ft 403 kts 322°
2026-05-04 18:28 52.27826 -0.88291 26694 ft 401 kts 324°
2026-05-04 18:29 52.30170 -0.90725 26117 ft 398 kts 325°
2026-05-04 18:29 52.32522 -0.93078 25541 ft 395 kts 325°
2026-05-04 18:29 52.34872 -0.95392 24976 ft 392 kts 325°
2026-05-04 18:29 52.37172 -0.97650 24431 ft 389 kts 325°
2026-05-04 18:30 52.41765 -1.02191 23306 ft 382 kts 324°
2026-05-04 18:30 52.44027 -1.04446 22670 ft 379 kts 324°
2026-05-04 18:30 52.46269 -1.06691 22046 ft 374 kts 324°
2026-05-04 18:31 52.48463 -1.08891 21283 ft 365 kts 325°
2026-05-04 18:31 52.50613 -1.11051 20523 ft 361 kts 325°
2026-05-04 18:31 52.52743 -1.13198 19773 ft 358 kts 326°
2026-05-04 18:31 52.54853 -1.15328 19041 ft 354 kts 326°
2026-05-04 18:32 52.56943 -1.17438 18321 ft 350 kts 326°
2026-05-04 18:32 52.59007 -1.19522 17508 ft 347 kts 326°
2026-05-04 18:32 52.61053 -1.21589 16726 ft 342 kts 327°
2026-05-04 18:32 52.63065 -1.23624 15959 ft 337 kts 327°
2026-05-04 18:33 52.65055 -1.25637 15213 ft 333 kts 327°
2026-05-04 18:33 52.67012 -1.27620 14479 ft 328 kts 327°
2026-05-04 18:33 52.68885 -1.29723 13756 ft 323 kts 322°
2026-05-04 18:33 52.70655 -1.31936 12961 ft 319 kts 321°
2026-05-04 18:34 52.72399 -1.34170 12189 ft 315 kts 320°
2026-05-04 18:34 52.74104 -1.36384 11459 ft 311 kts 320°
2026-05-04 18:34 52.75782 -1.38577 10744 ft 307 kts 320°
2026-05-04 18:34 52.77442 -1.40758 10262 ft 305 kts 320°
2026-05-04 18:35 52.79099 -1.42944 10075 ft 304 kts 320°
2026-05-04 18:35 52.80741 -1.45112 10047 ft 303 kts 320°
2026-05-04 18:35 52.82384 -1.47286 10047 ft 302 kts 320°
2026-05-04 18:35 52.84022 -1.49455 10048 ft 301 kts 320°
2026-05-04 18:36 52.85660 -1.51626 10039 ft 301 kts 320°
2026-05-04 18:36 52.87302 -1.53806 10048 ft 302 kts 320°
2026-05-04 18:36 52.88939 -1.55980 10045 ft 302 kts 320°
2026-05-04 18:36 52.90580 -1.58163 10042 ft 302 kts 320°
2026-05-04 18:37 52.92220 -1.60347 10044 ft 302 kts 320°
2026-05-04 18:37 52.93861 -1.62533 10002 ft 301 kts 320°
2026-05-04 18:37 52.95444 -1.64682 9749 ft 288 kts 319°
2026-05-04 18:37 52.96979 -1.66755 9469 ft 282 kts 320°
2026-05-04 18:38 52.98509 -1.68783 9008 ft 281 kts 321°
2026-05-04 18:38 53.00012 -1.70778 8555 ft 280 kts 320°
2026-05-04 18:38 53.01529 -1.72800 8092 ft 277 kts 321°
2026-05-04 18:38 53.03022 -1.74795 7639 ft 274 kts 321°
2026-05-04 18:39 53.04502 -1.76776 7194 ft 272 kts 321°
2026-05-04 18:39 53.05992 -1.78707 6737 ft 269 kts 323°
2026-05-04 18:39 53.07643 -1.80152 6298 ft 268 kts 337°
2026-05-04 18:39 53.09379 -1.81254 5828 ft 265 kts 338°
2026-05-04 18:40 53.11102 -1.82281 5368 ft 262 kts 340°
2026-05-04 18:40 53.12816 -1.83302 5091 ft 261 kts 340°
2026-05-04 18:40 53.14529 -1.84324 5039 ft 261 kts 340°
2026-05-04 18:40 53.16290 -1.85000 5040 ft 260 kts 354°
2026-05-04 18:41 53.18091 -1.85075 4997 ft 259 kts 360°
2026-05-04 18:41 53.19897 -1.85040 4990 ft 259 kts
2026-05-04 18:41 53.21696 -1.84997 4989 ft 259 kts
2026-05-04 18:41 53.23499 -1.84953 4990 ft 259 kts
2026-05-04 18:42 53.25303 -1.84899 4989 ft 260 kts
2026-05-04 18:42 53.27120 -1.84833 4991 ft 262 kts 360°
2026-05-04 18:42 53.28944 -1.84765 4990 ft 262 kts
2026-05-04 18:42 53.30719 -1.84269 4990 ft 263 kts 16°
2026-05-04 18:43 53.32399 -1.83080 4976 ft 264 kts 27°
2026-05-04 18:43 53.33816 -1.81085 5001 ft 268 kts 46°
2026-05-04 18:43 53.35014 -1.78711 4990 ft 267 kts 50°
2026-05-04 18:43 53.36170 -1.76276 4988 ft 267 kts 50°
2026-05-04 18:44 53.37322 -1.73834 4987 ft 267 kts 50°
2026-05-04 18:44 53.38096 -1.72188 4987 ft 267 kts 50°
2026-05-04 18:44 53.39634 -1.68923 4750 ft 266 kts 50°
2026-05-04 18:44 53.40768 -1.66505 4204 ft 262 kts 49°
2026-05-04 18:45 53.41886 -1.64136 3676 ft 262 kts 50°
2026-05-04 18:45 53.43013 -1.61723 3504 ft 262 kts 51°
2026-05-04 18:45 53.44167 -1.59522 3482 ft 240 kts 36°
2026-05-04 18:45 53.45637 -1.58502 3488 ft 225 kts
2026-05-04 18:46 53.47145 -1.58948 3487 ft 221 kts 335°
2026-05-04 18:46 53.48516 -1.60149 3482 ft 222 kts 329°
2026-05-04 18:46 53.49849 -1.61468 3482 ft 223 kts 328°
2026-05-04 18:46 53.51184 -1.62806 3480 ft 223 kts 328°
2026-05-04 18:47 53.52393 -1.64440 3484 ft 223 kts 314°
2026-05-04 18:47 53.53429 -1.66375 3481 ft 223 kts 310°
2026-05-04 18:47 53.54439 -1.68349 3480 ft 223 kts 310°
2026-05-04 18:47 53.55437 -1.70337 3479 ft 223 kts 306°
2026-05-04 18:48 53.55986 -1.72732 3478 ft 223 kts 275°
2026-05-04 18:48 53.55803 -1.75318 3480 ft 224 kts 258°
2026-05-04 18:48 53.55402 -1.77831 3477 ft 225 kts 254°
2026-05-04 18:48 53.54771 -1.80246 3478 ft 227 kts 243°
2026-05-04 18:49 53.53979 -1.82548 3485 ft 227 kts 240°
2026-05-04 18:49 53.53125 -1.84779 3483 ft 227 kts 237°
2026-05-04 18:49 53.52235 -1.86974 3483 ft 228 kts 235°
2026-05-04 18:49 53.51358 -1.89193 3492 ft 228 kts 238°
2026-05-04 18:50 53.50501 -1.91436 3487 ft 228 kts 238°
2026-05-04 18:50 53.49639 -1.93671 3489 ft 228 kts 238°
2026-05-04 18:50 53.48768 -1.95904 3484 ft 228 kts 235°
2026-05-04 18:50 53.47887 -1.98127 3490 ft 228 kts 238°
2026-05-04 18:51 53.47040 -2.00372 3486 ft 225 kts 239°
2026-05-04 18:51 53.46234 -2.02504 3505 ft 208 kts 237°
2026-05-04 18:51 53.45449 -2.04455 3506 ft 192 kts 236°
2026-05-04 18:51 53.44732 -2.06267 3495 ft 183 kts 237°
2026-05-04 18:52 53.44045 -2.08033 3495 ft 182 kts 236°
2026-05-04 18:52 53.43356 -2.09794 3493 ft 181 kts 237°
2026-05-04 18:52 53.42668 -2.11563 3493 ft 181 kts 238°
2026-05-04 18:52 53.41987 -2.13305 3492 ft 181 kts 237°
2026-05-04 18:53 53.41329 -2.15096 3496 ft 180 kts 232°
2026-05-04 18:53 53.40535 -2.16653 3490 ft 169 kts 227°
2026-05-04 18:53 53.39757 -2.18100 3492 ft 166 kts 229°
2026-05-04 18:53 53.38973 -2.19592 3474 ft 193 kts 232°
2026-05-04 18:54 53.38003 -2.21499 3467 ft 230 kts 226°
2026-05-04 18:54 53.36945 -2.23592 3483 ft 238 kts 231°
2026-05-04 18:54 53.35962 -2.25790 3486 ft 238 kts 246°
2026-05-04 18:54 53.35661 -2.28458 3495 ft 233 kts 276°
2026-05-04 18:55 53.36241 -2.30937 3494 ft 231 kts 308°
2026-05-04 18:55 53.39127 -2.33035 3494 ft 236 kts 353°
2026-05-04 18:55 53.40765 -2.33253 3494 ft 236 kts 355°
2026-05-04 18:56 53.42401 -2.33428 3388 ft 234 kts 355°
2026-05-04 18:56 53.43993 -2.33591 3229 ft 224 kts 354°
2026-05-04 18:56 53.45505 -2.33448 3056 ft 217 kts 17°
2026-05-04 18:56 53.46797 -2.32178 3003 ft 216 kts 37°
2026-05-04 18:57 53.47937 -2.30515 2995 ft 217 kts 39°
2026-05-04 18:57 53.49057 -2.28812 2997 ft 218 kts 40°
2026-05-04 18:57 53.50185 -2.27096 2992 ft 218 kts 41°
2026-05-04 18:57 53.51290 -2.25398 2991 ft 218 kts 39°
2026-05-04 18:58 53.52407 -2.23667 2994 ft 218 kts 40°
2026-05-04 18:58 53.53531 -2.21961 2994 ft 218 kts 39°
2026-05-04 18:58 53.54654 -2.20247 2996 ft 218 kts 40°
2026-05-04 18:58 53.55773 -2.18532 3011 ft 217 kts 40°
2026-05-04 18:59 53.56692 -2.16539 3013 ft 219 kts 63°
2026-05-04 18:59 53.57246 -2.14136 2989 ft 221 kts 70°
2026-05-04 18:59 53.57722 -2.11663 2995 ft 223 kts 70°
2026-05-04 18:59 53.58187 -2.09188 2914 ft 221 kts 72°
2026-05-04 19:00 53.58342 -2.06609 2862 ft 224 kts 94°
2026-05-04 19:00 53.57816 -2.04171 2809 ft 225 kts 126°
2026-05-04 19:00 53.56590 -2.02594 2758 ft 224 kts 158°
2026-05-04 19:00 53.55095 -2.01888 2710 ft 223 kts 169°
2026-05-04 19:01 53.53575 -2.01398 2655 ft 222 kts 171°
2026-05-04 19:01 53.52053 -2.00927 2597 ft 222 kts 171°
2026-05-04 19:01 53.50555 -2.00454 2555 ft 222 kts 171°
2026-05-04 19:01 53.49031 -2.00585 2488 ft 222 kts 202°
2026-05-04 19:02 53.47769 -2.01904 2493 ft 204 kts 226°
2026-05-04 19:02 53.46908 -2.03624 2491 ft 186 kts 232°
2026-05-04 19:02 53.46111 -2.05319 2492 ft 184 kts 233°
2026-05-04 19:02 53.45315 -2.06994 2492 ft 184 kts 233°
2026-05-04 19:03 53.44508 -2.08676 2497 ft 185 kts 234°
2026-05-04 19:03 53.43695 -2.10358 2491 ft 186 kts 234°
2026-05-04 19:03 53.42877 -2.12040 2443 ft 186 kts 234°
2026-05-04 19:03 53.42063 -2.13715 2199 ft 184 kts 235°
2026-05-04 19:04 53.41260 -2.15374 1928 ft 183 kts 234°
2026-05-04 19:04 53.40489 -2.16963 1682 ft 169 kts 235°
2026-05-04 19:04 53.39769 -2.18449 1452 ft 162 kts 234°
2026-05-04 19:04 53.39057 -2.19921 1224 ft 161 kts 234°
2026-05-04 19:05 53.38393 -2.21288 1021 ft 146 kts 234°
2026-05-04 19:05 53.37763 -2.22584 810 ft 142 kts 231°
2026-05-04 19:05 53.37136 -2.23866 634 ft 147 kts 234°
2026-05-04 19:05 53.36467 -2.25212 391 ft 143 kts 227°
2026-05-04 19:06 53.35891 -2.26431 285 ft 123 kts 230°
2026-05-04 19:06 53.35393 -2.27438 246 ft 94 kts 237°
2026-05-04 19:06 53.35089 -2.28065 237 ft 49 kts 231°
2026-05-04 19:06 53.34955 -2.28491 236 ft 27 kts 263°
2026-05-04 19:07 53.34940 -2.28679 231 ft 3 kts 279°
2026-05-04 19:07 53.34948 -2.28709 231 ft 4 kts 305°
2026-05-04 19:07 53.34964 -2.28736 232 ft 1 kts 320°
2026-05-04 19:07 53.34982 -2.28755 230 ft 5 kts 339°
2026-05-04 19:08 53.35017 -2.28733 230 ft 5 kts 46°
2026-05-04 19:08 53.35041 -2.28689 232 ft 5 kts 50°
2026-05-04 19:08 53.35062 -2.28648 232 ft 5 kts 48°
2026-05-04 19:08 53.35087 -2.28597 232 ft 7 kts 51°
2026-05-04 19:09 53.35126 -2.28515 230 ft 11 kts 51°
2026-05-04 19:09 53.35180 -2.28406 232 ft 12 kts 50°
2026-05-04 19:09 53.35228 -2.28308 235 ft 11 kts 49°
2026-05-04 19:09 53.35290 -2.28226 236 ft 12 kts 29°
2026-05-04 19:10 53.35373 -2.28170 238 ft 17 kts 13°
2026-05-04 19:10 53.35528 -2.28081 237 ft 27 kts 38°
2026-05-04 19:10 53.35658 -2.27889 245 ft 21 kts
2026-05-04 19:10 53.35792 -2.27865 253 ft 18 kts
2026-05-04 19:11 53.35908 -2.27848 258 ft 16 kts 359°
2026-05-04 19:11 53.36008 -2.27923 258 ft 16 kts 317°
2026-05-04 19:11 53.36097 -2.28055 258 ft 18 kts 317°
2026-05-04 19:11 53.36205 -2.28233 258 ft 24 kts 315°
2026-05-04 19:12 53.36300 -2.28393 258 ft 26 kts 314°
2026-05-04 19:12 53.36573 -2.28746 258 ft 28 kts 315°
2026-05-04 19:12 53.36642 -2.28717 258 ft 10 kts 60°
2026-05-04 19:13 53.36694 -2.28625 258 ft 12 kts 45°